Alghero, Italy

9:29 AM CET on January 17, 2018 (GMT +0100)
Fertilia

Weather History for LIEA - October, 2012

Change the Weather History Date:

Sunday, October 21, 2012

  Actual Average Record
Temperature  
Mean Temperature 73 °F -  
Max Temperature 80 °F 65 °F 80 °F (2002)
Min Temperature 66 °F 49 °F 44 °F (2010)
Cooling Degree Days 8    
Growing Degree Days 23 (Base 50)    
Moisture  
Dew Point 66 °F    
Average Humidity 82    
Maximum Humidity 94    
Minimum Humidity 65    
Precipitation  
Precipitation 0.00 in 0.13 in - ()
Sea Level Pressure  
Sea Level Pressure 29.97 in    
Wind  
Wind Speed 5 mph ()    
Max Wind Speed 12 mph    
Max Gust Speed -    
Visibility 6.2 miles    
Events      
Averages and records for this station are not official NWS values.
T = Trace of Precipitation, MM = Missing Value Source: Averaged Metar Reports

Daily Weather History Graph

Daily Weather History Graph

Search for Another Location

Airport or City:

Trip Planner

Search our weather history database for the weather conditions in past years. The results will help you decide how hot, cold, wet, or windy it might be!

Date:

Astronomy

Oct. 21, 2012 Rise Set
Actual Time 7:44 AM CEST 6:37 PM CEST
Civil Twilight 7:16 AM CEST 7:05 PM CEST
Nautical Twilight 6:45 AM CEST 7:37 PM CEST
Astronomical Twilight 6:13 AM CEST 8:08 PM CEST
Moon 1:54 PM CEST (10/21) No Moon Set
Length of Visible Light 11h 48m
Length of Day
10h 52m
Waxing Crescent, 42% of the Moon is Illuminated
Oct 21
Waxing Crescent
Oct 22
First Quarter
Oct 29
Full
Nov 7
Last Quarter
Nov 13
New

Hourly Weather History & Observations

Time (CEST) Temp. Heat Index Dew Point Humidity Pressure Visibility Wind Dir Wind Speed Gust Speed Precip Events Conditions
12:20 AM 69.8 °F - 66.2 °F 88% 29.95 in - NNE 6.9 mph - N/A   Clear
12:50 AM 69.8 °F - 66.2 °F 88% 29.95 in - Variable 2.3 mph - N/A   Clear
1:20 AM 68.0 °F - 66.2 °F 94% 29.95 in - NNE 5.8 mph - N/A   Clear
1:50 AM 68.0 °F - 66.2 °F 94% 29.95 in - NW 3.5 mph - N/A   Clear
2:20 AM 68.0 °F - 66.2 °F 94% 29.95 in - North 4.6 mph - N/A   Clear
2:50 AM 68.0 °F - 64.4 °F 88% 29.95 in - NNW 3.5 mph - N/A   Clear
3:20 AM 68.0 °F - 64.4 °F 88% 29.95 in - North 4.6 mph - N/A   Clear
3:50 AM 68.0 °F - 64.4 °F 88% 29.92 in - NNE 8.1 mph - N/A   Clear
4:20 AM 68.0 °F - 64.4 °F 88% 29.92 in - NNW 4.6 mph - N/A   Clear
4:50 AM 69.8 °F - 64.4 °F 83% 29.92 in - North 6.9 mph - N/A   Clear
5:20 AM 69.8 °F - 64.4 °F 83% 29.92 in - NNE 8.1 mph - N/A   Clear
5:50 AM 69.8 °F - 64.4 °F 83% 29.95 in - North 8.1 mph - N/A   Clear
6:20 AM 69.8 °F - 64.4 °F 83% 29.95 in - NW 5.8 mph - N/A   Clear
6:50 AM 68.0 °F - 62.6 °F 83% 29.92 in - NE 3.5 mph - N/A   Clear
7:20 AM 66.2 °F - 62.6 °F 88% 29.95 in - East 6.9 mph - N/A   Clear
7:50 AM 66.2 °F - 62.6 °F 88% 29.95 in - WNW 5.8 mph - N/A   Clear
8:20 AM 68.0 °F - 64.4 °F 88% 29.95 in - North 6.9 mph - N/A   Clear
8:50 AM 68.0 °F - 64.4 °F 88% 29.95 in - North 5.8 mph - N/A   Clear
9:20 AM 69.8 °F - 64.4 °F 83% 29.95 in - NNE 4.6 mph - N/A   Clear
9:50 AM 71.6 °F - 66.2 °F 83% 29.98 in - North 3.5 mph - N/A   Clear
10:20 AM 73.4 °F - 66.2 °F 78% 29.98 in - Variable 2.3 mph - N/A   Clear
10:50 AM 75.2 °F - 66.2 °F 73% 29.98 in - ENE 5.8 mph - N/A   Clear
11:20 AM 75.2 °F - 68.0 °F 78% 29.98 in - East 5.8 mph - N/A   Clear
11:50 AM 77.0 °F - 66.2 °F 69% 29.98 in - NE 3.5 mph - N/A   Clear
12:20 PM 77.0 °F - 66.2 °F 69% 30.01 in - Variable 2.3 mph - N/A   Clear
12:50 PM 78.8 °F - 68.0 °F 69% 29.98 in - WNW 4.6 mph - N/A   Clear
1:20 PM 78.8 °F - 68.0 °F 69% 30.01 in - WNW 5.8 mph - N/A   Clear
1:50 PM 78.8 °F - 66.2 °F 65% 29.98 in 6.2 mi NW 5.8 mph - N/A   Partly Cloudy
2:20 PM 78.8 °F - 66.2 °F 65% 29.98 in 6.2 mi SSW 11.5 mph - N/A   Partly Cloudy
2:50 PM 78.8 °F - 66.2 °F 65% 29.98 in - SSW 3.5 mph - N/A   Clear
3:20 PM 78.8 °F - 66.2 °F 65% 29.98 in - SSE 1.2 mph - N/A   Clear
3:50 PM 80.6 °F 83.2 °F 68.0 °F 65% 29.95 in - NE 3.5 mph - N/A   Clear
4:20 PM 78.8 °F - 68.0 °F 69% 29.95 in - NE 11.5 mph - N/A   Clear
4:50 PM 77.0 °F - 68.0 °F 74% 29.98 in - NNE 8.1 mph - N/A   Clear
5:20 PM 75.2 °F - 68.0 °F 78% 29.95 in - NNE 8.1 mph - N/A   Clear
5:50 PM 75.2 °F - 68.0 °F 78% 29.95 in - North 8.1 mph - N/A   Clear
6:20 PM 73.4 °F - 68.0 °F 83% 29.95 in - North 6.9 mph - N/A   Clear
6:50 PM 73.4 °F - 68.0 °F 83% 29.95 in - NNE 6.9 mph - N/A   Clear
7:20 PM 71.6 °F - 68.0 °F 88% 29.98 in - North 3.5 mph - N/A   Clear
7:50 PM 71.6 °F - 68.0 °F 88% 30.01 in - Variable 2.3 mph - N/A   Clear
8:20 PM 71.6 °F - 68.0 °F 88% 30.01 in - Variable 2.3 mph - N/A   Clear
8:50 PM 71.6 °F - 68.0 °F 88% 29.98 in - NE 5.8 mph - N/A   Clear
9:20 PM 71.6 °F - 68.0 °F 88% 29.98 in - Variable 2.3 mph - N/A   Clear
9:50 PM 69.8 °F - 66.2 °F 88% 30.01 in - Variable 1.2 mph - N/A   Clear
10:20 PM 69.8 °F - 66.2 °F 88% 30.01 in - Variable 2.3 mph - N/A   Clear
10:50 PM 73.4 °F - 68.0 °F 83% 30.01 in 6.2 mi SSW 6.9 mph - N/A   Scattered Clouds
11:20 PM 73.4 °F - 69.8 °F 88% 30.01 in 6.2 mi SW 9.2 mph - N/A   Scattered Clouds
11:50 PM 71.6 °F - 68.0 °F 88% 30.01 in 6.2 mi WNW 6.9 mph - N/A   Scattered Clouds